| time (UTC) | temp F | wind direction | speed MPH | gust MPH | rain 1hr in | rain 24hr in | rain mn in | humidity % | barometer mb |
| 20260831080050 | 65 | 0 | 0.0 | 0.0 | 0.00 | 0.00 | 0.00 | 64 | 1010.2 |
| 20260831074550 | 65 | 0 | 0.0 | 0.0 | 0.00 | 0.00 | 0.00 | 64 | 1010.1 |
| 20260831073045 | 65 | 0 | 0.0 | 0.0 | 0.00 | 0.00 | 0.00 | 64 | 1010.0 |
| 20260831071543 | 65 | 0 | 0.0 | 0.0 | 0.00 | 0.00 | 0.00 | 63 | 1010.1 |
| 20260831070056 | 66 | 0 | 0.0 | 0.0 | 0.00 | 0.00 | 0.00 | 62 | 1010.0 |
| 20260831064546 | 67 | 0 | 0.0 | 0.0 | 0.00 | 0.00 | 0.00 | 60 | 1010.0 |
| 20260831063047 | 69 | 0 | 0.0 | 0.0 | 0.00 | 0.00 | 0.00 | 58 | 1010.1 |
| 20260831061542 | 70 | 0 | 0.0 | 2.0 | 0.00 | 0.00 | 0.00 | 56 | 1010.2 |
| 20260831060056 | 70 | 0 | 0.0 | 2.0 | 0.00 | 0.00 | 0.00 | 55 | 1010.1 |
| 20260831054545 | 70 | 0 | 0.0 | 3.0 | 0.00 | 0.00 | 0.00 | 56 | 1010.1 |
| 20260831053055 | 68 | 0 | 0.0 | 0.0 | 0.00 | 0.00 | 0.00 | 57 | 1010.0 |
| 20260831051544 | 67 | 0 | 0.0 | 0.0 | 0.00 | 0.00 | 0.00 | 60 | 1010.2 |
| 20260831050046 | 68 | 0 | 0.0 | 0.0 | 0.00 | 0.00 | 0.00 | 58 | 1010.1 |
| 20260831044541 | 70 | 0 | 0.0 | 0.0 | 0.00 | 0.00 | 0.00 | 56 | 1010.2 |
| 20260831043049 | 70 | 0 | 0.0 | 0.0 | 0.00 | 0.00 | 0.00 | 54 | 1009.9 |
| 20260831041544 | 71 | 0 | 0.0 | 0.0 | 0.00 | 0.00 | 0.00 | 53 | 1009.8 |
| 20260831040053 | 73 | 0 | 0.0 | 0.0 | 0.00 | 0.00 | 0.00 | 50 | 1009.6 |
| 20260831034551 | 75 | 0 | 0.0 | 0.0 | 0.00 | 0.00 | 0.00 | 45 | 1009.4 |
| 20260831033101 | 76 | 0 | 0.0 | 1.0 | 0.00 | 0.00 | 0.00 | 45 | 1009.3 |
| 20260831031540 | 77 | 0 | 0.0 | 0.0 | 0.00 | 0.00 | 0.00 | 44 | 1009.2 |
| 20260831030042 | 79 | 0 | 0.0 | 0.0 | 0.00 | 0.00 | 0.00 | 42 | 1009.1 |
| 20260831024544 | 83 | 0 | 0.0 | 1.0 | 0.00 | 0.00 | 0.00 | 38 | 1008.9 |
| 20260831023040 | 87 | 0 | 0.0 | 1.0 | 0.00 | 0.00 | 0.00 | 30 | 1008.8 |
| 20260831021541 | 88 | 0 | 0.0 | 2.0 | 0.00 | 0.00 | 0.00 | 27 | 1008.8 |
| 20260831020105 | 89 | 0 | 0.0 | 4.0 | 0.00 | 0.00 | 0.00 | 27 | 1008.9 |
| 20260831014543 | 89 | 175 | 1.0 | 4.0 | 0.00 | 0.00 | 0.00 | 26 | 1008.8 |
| 20260831013042 | 90 | 0 | 0.0 | 2.0 | 0.00 | 0.00 | 0.00 | 24 | 1008.8 |
| 20260831011550 | 90 | 0 | 0.0 | 3.0 | 0.00 | 0.00 | 0.00 | 23 | 1009.0 |
| 20260831010045 | 91 | 175 | 1.0 | 4.0 | 0.00 | 0.00 | 0.00 | 24 | 1009.1 |
| 20260831004542 | 91 | 0 | 0.0 | 4.0 | 0.00 | 0.00 | 0.00 | 23 | 1009.1 |
| 20260831003047 | 91 | 0 | 1.0 | 6.0 | 0.00 | 0.00 | 0.00 | 23 | 1009.1 |
| 20260831001544 | 91 | 0 | 0.0 | 3.0 | 0.00 | 0.00 | 0.00 | 23 | 1009.2 |
| 20260831000046 | 92 | 0 | 1.0 | 7.0 | 0.00 | 0.00 | 0.00 | 25 | 1009.3 |
| 20260830234550 | 92 | 175 | 3.0 | 8.0 | 0.00 | 0.00 | 0.00 | 24 | 1009.3 |
| 20260830233047 | 91 | 0 | 1.0 | 6.0 | 0.00 | 0.00 | 0.00 | 23 | 1009.4 |
| 20260830231543 | 93 | 175 | 1.0 | 7.0 | 0.00 | 0.00 | 0.00 | 24 | 1009.7 |
| 20260830230051 | 92 | 175 | 1.0 | 6.0 | 0.00 | 0.00 | 0.00 | 26 | 1009.8 |
| 20260830224549 | 92 | 175 | 1.0 | 6.0 | 0.00 | 0.00 | 0.00 | 25 | 1010.0 |
| 20260830223045 | 92 | 175 | 1.0 | 7.0 | 0.00 | 0.00 | 0.00 | 23 | 1010.1 |
| 20260830221543 | 93 | 0 | 1.0 | 8.0 | 0.00 | 0.00 | 0.00 | 24 | 1010.2 |
| 20260830220056 | 92 | 175 | 0.0 | 9.0 | 0.00 | 0.00 | 0.00 | 26 | 1010.5 |
| 20260830214547 | 92 | 173 | 1.0 | 9.0 | 0.00 | 0.00 | 0.00 | 26 | 1010.8 |
| 20260830213045 | 92 | 0 | 1.0 | 6.0 | 0.00 | 0.00 | 0.00 | 25 | 1011.1 |
| 20260830211552 | 91 | 0 | 3.0 | 7.0 | 0.00 | 0.00 | 0.00 | 27 | 1011.3 |
| 20260830210050 | 90 | 171 | 1.0 | 6.0 | 0.00 | 0.00 | 0.00 | 27 | 1011.4 |
| 20260830204542 | 90 | 171 | 1.0 | 8.0 | 0.00 | 0.00 | 0.00 | 29 | 1011.4 |
| 20260830203051 | 89 | 0 | 0.0 | 6.0 | 0.00 | 0.00 | 0.00 | 30 | 1011.6 |
| 20260830201550 | 88 | 171 | 1.0 | 6.0 | 0.00 | 0.00 | 0.00 | 33 | 1011.7 |
| 20260830200047 | 87 | 171 | 2.0 | 6.0 | 0.00 | 0.00 | 0.00 | 33 | 1011.8 |
| 20260830194544 | 87 | 0 | 1.0 | 6.0 | 0.00 | 0.00 | 0.00 | 34 | 1012.0 |
| 20260830193049 | 85 | 171 | 1.0 | 6.0 | 0.00 | 0.00 | 0.00 | 35 | 1012.1 |
| 20260830191557 | 85 | 171 | 1.0 | 5.0 | 0.00 | 0.00 | 0.00 | 36 | 1012.1 |
| 20260830190059 | 85 | 0 | 1.0 | 6.0 | 0.00 | 0.00 | 0.00 | 37 | 1012.4 |
| 20260830184554 | 84 | 171 | 1.0 | 5.0 | 0.00 | 0.00 | 0.00 | 38 | 1012.5 |
| 20260830183049 | 82 | 0 | 0.0 | 4.0 | 0.00 | 0.00 | 0.00 | 40 | 1012.7 |
| 20260830181544 | 83 | 0 | 0.0 | 4.0 | 0.00 | 0.00 | 0.00 | 39 | 1012.7 |
| 20260830180044 | 81 | 171 | 0.0 | 4.0 | 0.00 | 0.00 | 0.00 | 40 | 1012.8 |
| 20260830174542 | 81 | 0 | 0.0 | 5.0 | 0.00 | 0.00 | 0.00 | 40 | 1012.8 |
| 20260830173104 | 80 | 0 | 0.0 | 4.0 | 0.00 | 0.00 | 0.00 | 42 | 1012.9 |
| 20260830171551 | 79 | 0 | 0.0 | 4.0 | 0.00 | 0.00 | 0.00 | 45 | 1012.9 |
| 20260830170045 | 77 | 0 | 0.0 | 5.0 | 0.00 | 0.00 | 0.00 | 46 | 1012.9 |
| 20260830164550 | 75 | 0 | 0.0 | 4.0 | 0.00 | 0.00 | 0.00 | 51 | 1013.0 |
| 20260830163045 | 73 | 0 | 0.0 | 2.0 | 0.00 | 0.00 | 0.00 | 54 | 1012.8 |
| 20260830161555 | 71 | 171 | 0.0 | 4.0 | 0.00 | 0.00 | 0.00 | 57 | 1012.9 |
| 20260830160043 | 69 | 0 | 0.0 | 2.0 | 0.00 | 0.00 | 0.00 | 58 | 1012.8 |
| 20260830154550 | 67 | 0 | 0.0 | 4.0 | 0.00 | 0.00 | 0.00 | 61 | 1012.9 |
| 20260830153046 | 65 | 171 | 0.0 | 4.0 | 0.00 | 0.00 | 0.00 | 64 | 1013.0 |
| 20260830151559 | 62 | 0 | 0.0 | 0.0 | 0.00 | 0.00 | 0.00 | 72 | 1013.0 |
| 20260830150049 | 56 | 0 | 0.0 | 0.0 | 0.00 | 0.00 | 0.00 | 81 | 1012.8 |
| 20260830144555 | 54 | 0 | 0.0 | 0.0 | 0.00 | 0.00 | 0.00 | 83 | 1012.7 |
| 20260830143044 | 52 | 0 | 0.0 | 0.0 | 0.00 | 0.00 | 0.00 | 85 | 1012.6 |
| 20260830141549 | 51 | 0 | 0.0 | 0.0 | 0.00 | 0.00 | 0.00 | 86 | 1012.4 |
| 20260830140050 | 51 | 0 | 0.0 | 0.0 | 0.00 | 0.00 | 0.00 | 86 | 1012.2 |
| 20260830134554 | 51 | 0 | 0.0 | 0.0 | 0.00 | 0.00 | 0.00 | 85 | 1012.0 |
| 20260830133047 | 52 | 0 | 0.0 | 0.0 | 0.00 | 0.00 | 0.00 | 85 | 1012.0 |
| 20260830131556 | 52 | 0 | 0.0 | 0.0 | 0.00 | 0.00 | 0.00 | 85 | 1011.9 |
| 20260830130043 | 52 | 0 | 0.0 | 0.0 | 0.00 | 0.00 | 0.00 | 84 | 1011.9 |
| 20260830124550 | 53 | 0 | 0.0 | 0.0 | 0.00 | 0.00 | 0.00 | 83 | 1011.8 |
| 20260830123049 | 53 | 0 | 0.0 | 0.0 | 0.00 | 0.00 | 0.00 | 83 | 1011.6 |
| 20260830121542 | 53 | 0 | 0.0 | 0.0 | 0.00 | 0.00 | 0.00 | 82 | 1011.5 |
| 20260830120050 | 54 | 0 | 0.0 | 0.0 | 0.00 | 0.00 | 0.00 | 82 | 1011.5 |
| 20260830114557 | 54 | 0 | 0.0 | 0.0 | 0.00 | 0.00 | 0.00 | 82 | 1011.6 |
| 20260830113044 | 55 | 0 | 0.0 | 0.0 | 0.00 | 0.00 | 0.00 | 82 | 1011.7 |
| 20260830111542 | 55 | 0 | 0.0 | 0.0 | 0.00 | 0.00 | 0.00 | 82 | 1011.7 |
| 20260830110052 | 56 | 0 | 0.0 | 0.0 | 0.00 | 0.00 | 0.00 | 81 | 1011.6 |
| 20260830104548 | 56 | 0 | 0.0 | 0.0 | 0.00 | 0.00 | 0.00 | 80 | 1011.7 |
| 20260830103042 | 57 | 0 | 0.0 | 0.0 | 0.00 | 0.00 | 0.00 | 78 | 1011.6 |
| 20260830101552 | 57 | 0 | 0.0 | 0.0 | 0.00 | 0.00 | 0.00 | 77 | 1011.6 |
| 20260830100050 | 57 | 0 | 0.0 | 0.0 | 0.00 | 0.00 | 0.00 | 76 | 1011.5 |
| 20260830094543 | 59 | 0 | 0.0 | 0.0 | 0.00 | 0.00 | 0.00 | 75 | 1011.6 |
| 20260830093050 | 59 | 0 | 0.0 | 0.0 | 0.00 | 0.00 | 0.00 | 72 | 1011.4 |
| 20260830091549 | 60 | 0 | 0.0 | 0.0 | 0.00 | 0.00 | 0.00 | 71 | 1011.5 |
| 20260830090043 | 60 | 0 | 0.0 | 0.0 | 0.00 | 0.00 | 0.00 | 70 | 1011.5 |
| 20260830084545 | 61 | 0 | 0.0 | 0.0 | 0.00 | 0.00 | 0.00 | 69 | 1011.5 |
| 20260830083051 | 62 | 0 | 0.0 | 0.0 | 0.00 | 0.00 | 0.00 | 66 | 1011.5 |
| 20260830081545 | 63 | 0 | 0.0 | 0.0 | 0.00 | 0.00 | 0.00 | 66 | 1011.4 |